DW0336 Lasarte ES current weather conditions

sailwx.info

Wind from 079

Air temperature 15.6° C
Dewpoint 15.6° C

Last reported at 2019-Aug-21 03:02 UTC.
Time now 2019-Aug-21 03:33 UTC

Location: N 43°16' W 002°01'.
View on Google Maps.

See reports from other nearby stations

  
Tides and Currents Weather Stations Pressure Air Temp Water Temp Dewpoint Dewpoint Depression Visibility Wind Speed Wind Dir Waves Ship Positions
date/time (UTC)wind fromknots sea level pressurealtimeterstation pressurevisibilityair tempwater tempwave heightnotes
2019-Aug-21 03:02 079 15.6
2019-Aug-21 02:47 079 15.6
2019-Aug-21 02:32 079 15.6
2019-Aug-21 02:17 079 15.6
2019-Aug-21 02:02 079 16.1
2019-Aug-21 01:47 079 16.1
2019-Aug-21 01:32 079 16.1
2019-Aug-21 01:17 079 16.1
2019-Aug-21 01:02 079 16.1
2019-Aug-21 00:47 079 16.7
2019-Aug-21 00:32 079 16.7
2019-Aug-21 00:17 079 16.7
2019-Aug-21 00:02 079 16.7
2019-Aug-20 23:47 079 17.2
2019-Aug-20 23:32 079 17.2
2019-Aug-20 23:17 079 17.2
2019-Aug-20 23:02 079 17.8
2019-Aug-20 22:47 079 18.3
2019-Aug-20 22:32 079 18.3
2019-Aug-20 22:17 079 18.3
2019-Aug-20 22:02 079 18.9
2019-Aug-20 21:47 079 18.9
2019-Aug-20 21:32 079 19.4
2019-Aug-20 21:17 079 19.4
2019-Aug-20 21:02 079 0 gusting 0 19.4
2019-Aug-20 20:47 079 20.0
2019-Aug-20 20:32 064 20.6
2019-Aug-20 20:17 064 20.6
2019-Aug-20 20:02 064 21.1
2019-Aug-20 19:47 047 21.1
2019-Aug-20 19:32 048 21.1
2019-Aug-20 19:17 346 0 gusting 0 21.1
2019-Aug-20 19:02 347 0 gusting 0 21.1
2019-Aug-20 18:47 332 1 gusting 0 21.7
2019-Aug-20 18:32 348 1 gusting 0 21.7
2019-Aug-20 18:17 351 1 gusting 0 21.7
2019-Aug-20 18:02 013 0 gusting 0 21.7
2019-Aug-20 17:47 048 2 gusting 0 21.7
2019-Aug-20 17:32 342 1 gusting 0 21.7
2019-Aug-20 17:17 355 3 gusting 0 21.7
2019-Aug-20 17:02 347 3 gusting 0 21.7
2019-Aug-20 16:47 347 5 gusting 0 21.7
2019-Aug-20 16:32 355 5 gusting 0 21.7
2019-Aug-20 16:17 22.2
2019-Aug-20 16:02 322 4 gusting 0 22.2
2019-Aug-20 15:47 073 2 gusting 0 22.8
2019-Aug-20 15:32 286 3 gusting 0 22.8
2019-Aug-20 15:17 017 6 gusting 0 22.2
2019-Aug-20 15:02 345 5 gusting 0 22.8
2019-Aug-20 14:47 346 6 gusting 0 22.8
2019-Aug-20 14:32 333 6 gusting 0 22.2
2019-Aug-20 14:17 044 6 gusting 0 22.2
2019-Aug-20 14:02 350 3 gusting 0 22.8
2019-Aug-20 13:47 349 5 gusting 0 22.8
2019-Aug-20 13:32 005 3 gusting 0 22.8
2019-Aug-20 13:17 348 2 gusting 0 22.8
2019-Aug-20 13:02 355 4 gusting 0 22.8
2019-Aug-20 12:47 053 2 gusting 0 22.2
2019-Aug-20 12:32 005 5 gusting 0 22.8
2019-Aug-20 12:17 009 3 gusting 0 22.8
2019-Aug-20 12:02 327 2 gusting 0 22.8
2019-Aug-20 11:47 340 2 gusting 0 22.8
2019-Aug-20 11:32 355 0 gusting 0 22.2
2019-Aug-20 11:17 343 2 gusting 0 21.7
2019-Aug-20 11:02 351 3 gusting 0 21.1
2019-Aug-20 10:47 338 3 gusting 0 21.1
2019-Aug-20 10:32 019 2 gusting 0 21.1
2019-Aug-20 10:17 009 2 gusting 0 20.6
2019-Aug-20 10:02 338 1 gusting 0 20.6
2019-Aug-20 09:47 343 2 gusting 0 20.0
2019-Aug-20 09:32 317 0 gusting 0 20.6
2019-Aug-20 09:17 016 1 gusting 0 20.0
2019-Aug-20 09:02 313 18.9
2019-Aug-20 08:47 313 18.3
2019-Aug-20 08:32 315 17.8
2019-Aug-20 08:17 315 17.8
2019-Aug-20 08:02 316 17.8
2019-Aug-20 07:47 315 17.2
2019-Aug-20 07:32 315 16.7
2019-Aug-20 07:17 315 16.7
2019-Aug-20 07:02 315 16.7
2019-Aug-20 06:47 315 16.7
2019-Aug-20 06:32 324 16.7
2019-Aug-20 06:17 322 16.7
2019-Aug-20 06:02 348 0 gusting 0 16.7
2019-Aug-20 05:47 336 16.7
2019-Aug-20 05:32 209 16.7
2019-Aug-20 05:17 209 0 gusting 0 16.7
2019-Aug-20 05:02 153 16.7
2019-Aug-20 04:47 153 0 gusting 0 16.7
2019-Aug-20 04:32 158 16.7
2019-Aug-20 04:17 158 16.7
2019-Aug-20 04:02 158 16.7
2019-Aug-20 03:47 182 16.7
2019-Aug-20 03:32 182 16.7
2019-Aug-20 03:17 182 16.7
2019-Aug-20 03:02 202 16.7
2019-Aug-20 02:47 315 17.2
2019-Aug-20 02:32 315 17.2
2019-Aug-20 02:17 315 17.2
2019-Aug-20 02:02 315 17.2
2019-Aug-20 01:47 316 17.2
2019-Aug-20 01:32 316 17.2
2019-Aug-20 01:17 316 17.8
2019-Aug-20 01:02 317 17.8
2019-Aug-20 00:47 317 17.8
2019-Aug-20 00:32 319 0 gusting 0 17.8
2019-Aug-20 00:17 327 0 gusting 0 17.8
2019-Aug-20 00:02 027 17.8
2019-Aug-19 23:47 029 17.8
2019-Aug-19 23:32 017 17.8
2019-Aug-19 23:17 025 17.8
2019-Aug-19 23:02 031 17.8
2019-Aug-19 22:47 113 18.3
2019-Aug-19 22:32 113 0 gusting 5 18.3
2019-Aug-19 22:17 044 18.3
2019-Aug-19 22:02 054 18.3
2019-Aug-19 21:47 054 18.9
2019-Aug-19 21:32 355 18.9
2019-Aug-19 21:17 355 18.9
2019-Aug-19 21:02 355 0 gusting 4 18.9
2019-Aug-19 20:47 355 2 gusting 5 19.4
2019-Aug-19 20:32 302 0 gusting 6 19.4
2019-Aug-19 20:17 161 0 gusting 5 20.0
2019-Aug-19 20:02 135 20.0
2019-Aug-19 19:47 115 20.0
2019-Aug-19 19:32 333 0 gusting 4 20.0
2019-Aug-19 19:17 348 20.6
2019-Aug-19 19:02 355 20.6
2019-Aug-19 18:47 355 20.6
2019-Aug-19 18:32 20.6
2019-Aug-19 18:17 20.6
2019-Aug-19 18:02 348 0 gusting 3 20.6
2019-Aug-19 17:47 342 1 gusting 6 20.6
2019-Aug-19 17:32 333 0 gusting 6 21.1
2019-Aug-19 17:17 344 0 gusting 4 21.1
2019-Aug-19 17:02 031 0 gusting 4 21.7
2019-Aug-19 16:47 060 1 gusting 5 21.7
2019-Aug-19 16:32 336 0 gusting 4 21.7
2019-Aug-19 16:17 21.7
2019-Aug-19 16:02 326 1 gusting 5 21.7
2019-Aug-19 15:47 331 1 gusting 5 21.7
2019-Aug-19 15:32 051 2 gusting 5 21.7
2019-Aug-19 15:17 009 1 gusting 5 21.7
2019-Aug-19 15:02 050 3 gusting 5 21.7
2019-Aug-19 14:47 005 2 gusting 5 21.7
2019-Aug-19 14:32 341 1 gusting 5 21.7
2019-Aug-19 14:17 334 2 gusting 5 21.7
2019-Aug-19 14:02 333 4 gusting 5 21.7
2019-Aug-19 13:47 21.7
2019-Aug-19 13:32 351 5 gusting 5 21.7
2019-Aug-19 13:17 321 4 gusting 5 21.7
2019-Aug-19 13:02 355 4 gusting 5 21.7
2019-Aug-19 12:47 300 5 gusting 5 21.7
2019-Aug-19 12:32 005 4 gusting 5 21.7
2019-Aug-19 12:17 21.7
2019-Aug-19 12:02 334 4 gusting 5 21.1
2019-Aug-19 11:47 336 3 gusting 5 21.1
2019-Aug-19 11:32 355 2 gusting 5 21.1
2019-Aug-19 11:17 346 3 gusting 5 20.6
2019-Aug-19 11:02 333 4 gusting 5 20.0
2019-Aug-19 10:47 325 1 gusting 5 19.4
2019-Aug-19 10:32 286 3 gusting 5 19.4
2019-Aug-19 10:17 014 2 gusting 5 18.9
2019-Aug-19 10:02 323 2 gusting 5 18.9
2019-Aug-19 09:47 302 4 gusting 5 19.4
2019-Aug-19 09:32 342 3 gusting 5 19.4
2019-Aug-19 09:17 19.4
2019-Aug-19 09:02 300 19.4
2019-Aug-19 08:47 319 1 gusting 5 18.3
2019-Aug-19 08:32 309 1 gusting 5 17.8
2019-Aug-19 08:17 319 2 gusting 5 17.8
2019-Aug-19 08:02 328 1 gusting 5 17.8
2019-Aug-19 07:47 038 2 gusting 5 17.8
2019-Aug-19 07:32 005 1 gusting 5 17.8
2019-Aug-19 07:17 150 17.8
2019-Aug-19 07:02 146 1 gusting 5 17.2
2019-Aug-19 06:47 144 17.2
2019-Aug-19 06:32 143 17.2
2019-Aug-19 06:17 135 17.2
2019-Aug-19 06:02 135 17.2
2019-Aug-19 05:47 135 17.2
2019-Aug-19 05:32 135 17.2
2019-Aug-19 05:17 135 0 gusting 5 17.2
2019-Aug-19 05:02 136 17.2
2019-Aug-19 04:47 136 17.2
2019-Aug-19 04:32 136 17.2
2019-Aug-19 04:17 136 17.2
2019-Aug-19 04:02 136 0 17.2
2019-Aug-19 03:47 136 17.2
2019-Aug-19 03:32 136 17.2
2019-Aug-19 03:17 136 17.2
2019-Aug-19 03:02 136 17.2